Время (UTC), дата Ветер
(°,м/с) 
Видим.   Явления Облачность Т
(°С)
Тd
(°С)
f(%) Тe
(°С)
Pmin
(гПа)
dP
(гПа)
Po
(мм)
O2
(г/м3)
Тmin Tmax R s Состояние
почвы
00 20.05.15 070 (В) 10 км    ясно 
+14 +4.7 53 +15  1018.5  761  291           
03 20.05.15 090 (В) 10 км    ясно 
+14.6 +5.1 53 +15  1018.8  0.3  761  290  +12.5        сухая 
06 20.05.15 090 (В) 10 км    ясно 
+21.1 +2.6 29 +21  1019.1  0.4  762  285           
09 20.05.15 070 (В) 5-10{12}  10 км    ясно 
+24.2 +2.3 24 +24  1018.1  -1  761  281           
12 20.05.15 050 (СВ) 3{10}  10 км    ясно 
+26.3 +1.6 20 +26  1016.7  -1.3  760  279           
15 20.05.15 060 (СВ) 3{10}  10 км    ясно 
+25.7 +1.7 21 +26  1015.8  -0.9  759  279    +26.9       
18 20.05.15 050 (СВ) 10 км    ясно 
+21.2 +3.4 31 +21  1016.1  0.3  759  283           
21 20.05.15 050 (СВ) 10 км    ясно 
+18.5 +4.9 41 +19  1015.9  -0.3  759  286           
00 21.05.15 050 (СВ) 10 км    1/0 средняя 
[Ac trans]
+16.1 +4.8 47 +17  1015.5  -0.4  759  288           
03 21.05.15 060 (СВ) 10 км    8/0 средняя, верхняя 
[Ac trans|Ci fib]
+16.7 +3.1 40 +17  1015.6  -0.1  759  288  +16        сухая 
06 21.05.15 060 (СВ) 5-10{10}  10 км    6/0 верхняя 
[Ci fib]
+21.8 +3.3 30 +22  1015.3  -0.3  759  283           
09 21.05.15 060 (СВ) 4-11{12}  10 км    3/0 верхняя 
[Ci fib]
+26.3 +5.7 27 +26  1014.6  -0.6  758  278           
12 21.05.15 050 (СВ) 4-10{11}  10 км    5/0 верхняя 
[Ci fib]
+28.4 +6.1 24 +28  1013.7  -0.9  758  276           
15 21.05.15 050 (СВ) 4-11{11}  10 км    3/0 верхняя 
[Ci fib]
+27.6 +6.3 26 +28  1012.5  -1.2  757  276    +28.8       
18 21.05.15 050 (СВ) 2{11}  10 км    ясно 
+23.2 +5.2 31 +23  1013.2  0.7  757  280           
21 21.05.15 040 (СВ) 10 км    ясно 
+19.7 +4.6 37 +21  1013.1  -0.2  757  284           
00 22.05.15 050 (СВ) 10 км    ясно 
+18.4 +4.6 40 +19  1013.2  0.1  757  285           
03 22.05.15 070 (В) 10 км    3/0 верхняя 
[Ci fib]
+17.3 +7.9 54 +18  1013.2  757  286  +16.9        сухая 
06 22.05.15 070 (В) 4-10{11}  10 км    3/0 верхняя 
[Ci fib]
+22.3 +3.7 30 +22  1013.9  0.8  758  282           
09 22.05.15 070 (В) 3{11}  10 км    6/0 верхняя 
[Ci fib]
+27.3 +4 22 +27  1013.7  0.1  758  277           
12 22.05.15 080 (В) 4{11}  10 км    8/0 верхняя 
[Ci fib]
+29.1 +4.7 21 +29  1012.7  -0.9  757  275           
15 22.05.15 070 (В) 4{11}  10 км    8/0 верхняя 
[Ci fib]
+27.9 +4.1 22 +28  1012.5  -0.3  757  276    +29.5       
18 22.05.15 060 (СВ) 3{11}  10 км    8/0 верхняя 
[Ci fib]
+23.2 +2.6 26 +23  1013.2  0.6  757  281           
21 22.05.15 060 (СВ) 10 км    ясно 
+20.2 +3 32 +20  1012.8  -0.4  757  284           
00 23.05.15 060 (СВ) 10 км    ясно 
+17.4 +3.6 40 +18  1012.8  757  286           
03 23.05.15 060 (СВ) 10 км    3/0 верхняя 
[Ci fib]
+15.7 +4.1 46 +17  1012.9  0.1  757  288  +15.4        сухая 
06 23.05.15 060 (СВ) 10 км    6/0 верхняя 
[Ci fib]
+20.6 +5.6 38 +21  1013  0.1  757  283           
09 23.05.15 070 (В) 10 км    9/0 верхняя 
[Ci fib]
+26 +7.3 30 +26  1012.9  757  277           
12 23.05.15 050 (СВ) 3{10}  10 км    8/0 верхняя 
[Ci sp]
+28.3 +5.7 24 +28  1011.8  -1.1  756  275           
15 23.05.15 050 (СВ) 10 км    10/0 верхняя 
[Ci fib]
+28 +7.8 28 +28  1010.4  -1.3  755  275    +28.9       
18 23.05.15 060 (СВ) 10 км    10/0 верхняя 
[Ci fib]
+24 +6.8 33 +24  1011.5  756  279           
21 23.05.15 110 (В) 10 км    10/0 верхняя 
[Ci fib]
+21.3 +8.3 43 +21  1011.9  0.3  756  281           
00 24.05.15 тихо ()   10 км    10/0 верхняя 
[Ci fib]
+18.6 +7.8 49 +19  1012  -0.1  756  284           
03 24.05.15 060 (СВ) 10 км    10/3 1000 м средняя, верхняя 
[Sc|Ac trans|Ci fib]
+17.4 +7.4 52 +19  1012.2  0.2  757  285  +17.4        сухая 
06 24.05.15 150 (ЮВ) 10 км    4/0 верхняя 
[Cc]
+22.3 +12.6 54 +27  1012.2  757  279           
09 24.05.15 250 (З) 10 км    4/3 1000 м верхняя 
[Cu hum|Ci fib]
+26.1 +13.6 46 +32  1011.8  756  275           
12 24.05.15 180 (Ю) 10 км    3/1 1000 м средняя, верхняя 
[Cu hum|Ac trans|Ci fib]
+27.1 +12.1 39 +31  1011.4  -0.3  756  275           
15 24.05.15 160 (Ю) 10 км    8/6 1000 м средняя, верхняя 
[Cu hum|Ac trans|Ci fib]
+26.8 +13.2 43 +32  1010.7  -0.7  755  275    +27.6       
18 24.05.15 тихо ()   10 км    9/3 1000 м средняя, верхняя 
[Sc|Ac trans|Ci fib]
+24 +14.7 56 +32  1010.6  0.1  755  277           
21 24.05.15 тихо ()   10 км    9/1 1000 м средняя, верхняя 
[Sc|Ac trans|Ci fib]
+21.4 +15.3 68 +30  1010.8  0.2  755  279           
00 25.05.15 тихо ()   10 км    10/4 1000 м средняя 
[Sc|Ac trans]
+20.4 +15.2 72 +29  1010  -0.8  755  280           
03 25.05.15 200 (Ю) 10 км    8/6 1000 м средняя 
[Sc diur, vesp|Ac trans]
+18.9 +15.6 81 +30  1010.3  0.3  755  281  +18.6        сухая 
06 25.05.15 120 (ЮВ) 10 км    9/0 средняя 
[Sc|Ac trans]
+23.9 +15.4 59 +33  1010.8  0.5  755  277           
09 25.05.15 110 (В) 10 км    8/1 1000 м средняя, верхняя 
[Sc|Ac trans|Ci fib]
+27.5 +12.5 39 +32  1010.3  -0.4  755  274           
12 25.05.15 170 (Ю) 10 км    6/3 1000 м кучево-дожд., средняя, верхняя 
[Cb cap|Ac trans|Ci fib]
+29.1 +13.3 38 +35  1009.1  -1.2  754  272           
15 25.05.15 050 (СВ) 10 км    4/4 1000 м 
[Sc diur, vesp]
+29.2 +13.1 37 +35  1008.2  -0.9  754  272    +29.8       
18 25.05.15 050 (СВ) 10 км    ясно 
+25.1 +13.1 47 +31  1008.6  0.3  754  276           
21 25.05.15 060 (СВ) 10 км    ясно 
+22.7 +12.1 51 +27  1007.7  -0.9  753  278           
00 26.05.15 210 (ЮЗ) 10 км    ясно 
+19.5 +13.8 70 +28  1007.4  -0.3  753  280           
06 26.05.15 180 (Ю) 10 км    6/0 верхняя 
[Ci fib]
+25.6 +10.9 40 +28  1008  0.1  753  276           
09 26.05.15 180 (Ю) 10 км    8/3 1000 м верхняя 
[Cu hum|Ci fib]
+29.2 +9.3 29 +29  1008  753  273           
12 26.05.15 220 (ЮЗ) 10 км    4/3 1000 м средняя, верхняя 
[Cu med, cong|Ac trans|Ci fib]
+30.3 +7.1 23 +30  1007.6  -0.4  753  272           
15 26.05.15 250 (З) 10 км    10/3 1000 м кучево-дожд., средняя, верхняя 
[Cb cap|Ac trans|Ci fib]
+29.8 +13.7 37 +36  1007.4  -0.2  753  271    +31.1       
18 26.05.15 020 (С) 10 км    10/3 1000 м кучево-дожд., верхняя 
[Cb cap|Ci fib]
+25.1 +16.9 60 +37  1009.6  2.2  755  275           
21 26.05.15 140 (ЮВ) 10 км    10/5 1000 м кучево-дожд., средняя, верхняя 
[Cb cap|Ac trans|Ci fib]
+21.6 +13.7 61 +28  1009.7  755  279           
00 27.05.15 180 (Ю) 10 км    10/8 1000 м средняя, верхняя 
[Sc|Ac trans|Ci fib]
+19.7 +14.9 74 +29  1009.6  0.1  755  280           
03 27.05.15 260 (З) 10 км    6/3 1000 м верхняя 
[Sc|Ci fib]
+18.5 +15.4 82 +29  1010.1  0.5  755  282  +18        сухая 
06 27.05.15 220 (ЮЗ) 10 км    6/4 1000 м средняя, верхняя 
[Cu hum|Ac trans|Ci fib]
+23.4 +15.3 60 +32  1010.2  0.2  755  277           
09 27.05.15 180 (Ю) 10 км    6/3 1000 м средняя, верхняя 
[Cu hum|Ac trans|Ci fib]
+27.4 +14 44 +34  1009.1  -1.1  754  273           
12 27.05.15 190 (Ю) 10 км    10/3 1000 м средняя, верхняя 
[Cu hum|Ac trans|Ci fib]
+28.6 +12.6 37 +33  1007.7  -1.4  753  272           
15 27.05.15 тихо ()   10 км    10/4 1000 м кучево-дожд., средняя, верхняя 
[Cb cap|Ac trans|Ci fib]
+27.9 +11.9 37 +32  1006.8  -0.9  753  273    +29.1       
18 27.05.15 050 (СВ) 10 км    9/3 1000 м средняя, верхняя 
[Sc|Ac trans|Ci fib]
+25.1 +14.9 53 +34  1005.6  -1.2  752  274           
21 27.05.15 080 (В) 10 км    9/3 1000 м средняя, верхняя 
[Sc|Ac trans|Ci fib]
+21.6 +15.2 67 +31  1004  -1.7  750  277           
00 28.05.15 070 (В) 10 км    10/6 1000 м кучево-дожд., средняя 
[Cb cap|Ac trans]
+21.3 +15.7 70 +31  1002.7  -1.3  749  277           
03 28.05.15 070 (В) 10 км    9/8 1000 м кучево-дожд., средняя 
[Cb cap|Ac trans]
+21.9 +15.6 67 +32  1001.8  -0.9  749  276  +21.2        сухая 
06 28.05.15 090 (В) 10 км  {ливн. осадки}  8/1 1000 м кучево-дожд., средняя 
[Cb cap|Ac trans]
+25.1 +14.7 52 +33  1001.5  -0.3  749  273           
09 28.05.15 170 (Ю) 10 км    6/0 средняя, верхняя 
[Ac trans|Ci fib]
+29 +13.2 38 +35  1001  -0.4  748  270           
12 28.05.15 170 (Ю) 2{11}  10 км    8/5 1000 м средняя, верхняя 
[Cu med, cong|Ac trans|Ci fib]
+26.5 +14.2 47 +34  1002.4  1.4  749  272           
15 28.05.15 170 (Ю) 3{10}  10 км    8/3 1000 м средняя, верхняя 
[Sc|Ac trans|Ci fib]
+23.9 +13.3 51 +30  1002.8  0.4  750  275    +29.4  0.0     
18 28.05.15 180 (Ю) 10 км    9/8 1000 м кучево-дожд., средняя 
[Cb cap|Ac trans]
+20.3 +12.9 62 +26  1004.3  1.5  751  279           
21 28.05.15 200 (Ю) 10 км    8/6 1000 м средняя 
[Sc|Ac trans]
+19.2 +14 72 +27  1004.3  0.1  751  280           
00 29.05.15 180 (Ю) 10 км    8/3 1000 м средняя 
[Sc|Ac trans]
+18.7 +13.4 71 +25  1004.1  -0.2  750  280           
03 29.05.15 190 (Ю) 10 км    6/3 1000 м средняя, верхняя 
[Sc|Ac trans|Ci fib]
+18.1 +13.8 76 +26  1005.1  751  281  +17.8        сухая 
06 29.05.15 190 (Ю) 4{10}  10 км    9/8 1000 м кучево-дожд., средняя 
[Cb cap|Ac trans]
+20.4 +12.7 61 +25  1006.5  1.4  752  280           
09 29.05.15 180 (Ю) 5-10{12}  10 км    8/8 1000 м средняя, верхняя 
[Cu Sc|Ac trans|Ci sp]
+22.6 +11.5 49 +26  1007.4  0.9  753  278           
12 29.05.15 220 (ЮЗ) 3{10}  10 км    6/3 1000 м средняя 
[Sc|Ac trans]
+23.6 +11.2 46 +26  1007.9  0.5  753  277           
15 29.05.15 260 (З) 10 км    8/3 1000 м средняя 
[Sc|Ac trans]
+22.6 +11.7 50 +26  1008.1  0.2  753  278    +24.3       
18 29.05.15 270 (З) 10 км    8/6 1000 м средняя 
[Sc|Ac trans]
+19.5 +12.2 63 +25  1009.9  1.7  755  282           
21 29.05.15 270 (З) 10 км    8/6 1000 м средняя 
[Sc|Ac trans]
+17.2 +11.9 71 +22  1010  0.1  755  284           
00 30.05.15 280 (З) 10 км    9/8 1000 м средняя 
[Sc|Ac trans]
+16.3 +12 76 +22  1010.5  0.5  755  285           
03 30.05.15 140 (ЮВ) 10 км    10/10 1000 м кучево-дожд. 
[Cb cap]
+16.6 +12.2 75 +22  1011.8  1.3  756  285  +15.5        сухая 
06 30.05.15 250 (З) 4000 м  слаб. ливневой дождь{снег}  10/10 1000 м кучево-дожд. 
[Cb cap]
+16.5 +14.1 86 +25  1012.6  0.8  757  285           
09 30.05.15 330 (СЗ) 10 км  {ливн. осадки}  10/10 600 м кучево-дожд. 
[Cb cap]
+20.5 +14.5 68 +28  1013.3  0.7  757  281           
12 30.05.15 340 (С) 10 км  {ливн. осадки}  9/8 1000 м кучево-дожд., верхняя 
[Cb cap|Ci fib]
+25.5 +13.8 48 +32  1012.5  -0.7  757  276           
15 30.05.15 360 (С) 10 км    9/8 1000 м кучево-дожд., средняя 
[Cb cap|Ac trans]
+22.9 +13.5 55 +29  1012.5  757  279    +25.5  0.5     
18 30.05.15 320 (СЗ) 10 км    9/6 1000 м кучево-дожд., верхняя 
[Cb cap|Ci fib]
+20.6 +14.1 66 +27  1013.8  1.2  758  281           
21 30.05.15 300 (СЗ) 10 км  зарница  8/4 600 м кучево-дожд., средняя, верхняя 
[Cb cap|Ac trans|Ci fib]
+18.3 +14.3 77 +27  1013.4  -0.5  757  283           
03 31.05.15 340 (С) 4000 м  гроза, ливневой дождь  10/10 600 м кучево-дожд. 
[Cb cap]
+16.4 +15.6 95 +27  1013.8  0.4  758  285  +16.3    31    влажная 
06 31.05.15 330 (СЗ) 10 км  {ливн. осадки}  10/10 300 м кучево-дожд. 
[Cb cap]
+17.7 +17 96 +31  1014.2  0.5  758  283  +16.3         
09 31.05.15 270 (З) 4000 м  ливневой дождь  10/10 300 м кучево-дожд. 
[Cb cap]
+15.7 +14.9 95 +25  1015.5  1.3  759  286           
12 31.05.15 210 (ЮЗ) 4000 м  слаб. ливневой дождь  10/10 300 м кучево-дожд. 
[Cb cap]
+16.8 +15.7 93 +27  1017.2  1.7  760  285           
15 31.05.15 220 (ЮЗ) 10 км  {ливн. осадки}  9/8 600 м кучево-дожд., средняя 
[Cb cap|Ac trans]
+17.7 +15.6 87 +28  1017.6  0.4  761  284    +17.8  19     
18 31.05.15 200 (Ю) 10 км    10/3 1000 м средняя, верхняя 
[Sc|Ac trans|Ci fib]
+17 +14.7 86 +26  1018.6  761  286           
21 31.05.15 210 (ЮЗ) 4000 м  слаб. ливневой дождь  10/6 600 м кучево-дожд., средняя 
[Cb cap|Ac und]
+16.7 +14.2 85 +25  1018.9  0.3  761  286           
00 01.06.15 200 (Ю) 10 км  {ливн. осадки}  10/5 600 м кучево-дожд., средняя, верхняя 
[Cb cap|Ac trans|Ci fib]
+15.4 +13.6 89 +23  1019  0.1  762  288           
03 01.06.15 200 (Ю) 10 км    4/3 1000 м верхняя 
[Sc|Ci fib]
+15.2 +13.4 89 +23  1019.5  0.5  762  288  +14.6    0.8    влажная 
06 01.06.15 220 (ЮЗ) 10 км    5/0 средняя, верхняя 
[Ac trans|Ci fib]
+21 +13.4 62 +27  1019.9  0.5  762  283           
09 01.06.15 220 (ЮЗ) 10 км    8/6 1000 м средняя 
[Cu med, cong|Ac trans]
+24 +13.5 52 +30  1019.6  -0.3  762  280           
12 01.06.15 230 (ЮЗ) 10 км    8/6 1000 м средняя 
[Cu med, cong|Ac trans]
+24.9 +12.7 47 +29  1019  -0.6  762  279           
15 01.06.15 300 (СЗ) 10 км    3/3 1000 м кучево-дожд., верхняя 
[Cb cap|Ci fib]
+24.3 +14.2 53 +31  1018.6  -0.6  761  279    +25.8       
18 01.06.15 300 (СЗ) 10 км    5/4 1000 м средняя 
[Ac trans]
+20.5 +15 71 +29  1019.8  1.1  762  283           
21 01.06.15 тихо ()   10 км    6/0 верхняя 
[Ci fib]
+17.8 +14.5 81 +25  1020.1  0.3  762  285           
00 02.06.15 190 (Ю) 10 км    8/3 1000 м верхняя 
[Sc|Ci fib]
+16 +14.1 88 +24  1020.2  0.1  762  287           
03 02.06.15 тихо ()   10 км    ясно 
+16.1 +14.1 88 +23  1020.2  0.1  763  287  +15.2        влажная 
06 02.06.15 180 (Ю) 10 км    ясно 
+23 +14.3 58 +30  1020.7  0.5  763  281           
09 02.06.15 240 (ЮЗ) 10 км    6/6 1000 м 
[Cu med, cong]
+25.3 +12.3 44 +29  1020.1  -0.6  762  279           
12 02.06.15 290 (З) 10 км    8/8 1000 м 
[Cu med, cong]
+26.3 +10.6 37 +28  1019.4  -0.7  762  278           
15 02.06.15 030 (СВ) 10 км    3/3 1000 м 
[Cu med, cong]
+25.6 +12.9 45 +30  1018.6  -0.8  761  278    +28.1       
18 02.06.15 010 (С) 10 км    4/0 верхняя 
[Ci fib]
+22.8 +13.2 55 +28  1019.2  0.6  762  281           
21 02.06.15 010 (С) 10 км    3/0 средняя, верхняя 
[Ac trans|Ci fib]
+20.3 +9.7 51 +21  1019  -0.2  762  284           
00 03.06.15 тихо ()   10 км    6/6 1000 м 
[Sc]
+19.3 +11.3 60 +22  1019.2  0.1  762  285           
03 03.06.15 тихо ()   10 км    8/6 1000 м средняя 
[Sc|Ac cast]
+19.4 +12 62 +23  1019  -0.2  762  284  +18.7        сухая 
06 03.06.15 030 (СВ) 10 км    9/3 1000 м средняя 
[Sc|Ac trans]
+23.5 +12.3 49 +28  1018.9  762  280           
Время (UTC), дата Ветер
(°,м/с) 
Видим.   Явления Облачность Т
(°С)
Тd
(°С)
f(%) Тe
(°С)
Pmin
(гПа)
dP
(гПа)
Po
(мм)
O2
(г/м3)
Тmin Tmax R s Состояние
почвы